Hourly Data Report for October 20, 2018

VICTORIA UNIVERSITY CS
BRITISH COLUMBIA
Current Station Operator: ECCC - MSC

48°27'25.200" N
123°18'16.600" W
60.10 m
1018598
71783
WYJ

Download Data

Hourly Data (October 2018)
Hourly Data Report for October 20, 2018
TIME
LST
Temp Definition
°C
Dew Point Definition
°C
Rel Hum Definition
%
Precip. Amount Definition
mm

Wind Dir Definition
10's deg

Wind Spd Definition
km/h
Visibility Definition
km
Stn Press Definition
kPa
Hmdx Definition


Wind Chill Definition


Weather Definition


00:00 8.8 8.5 98 0.0 5 3   101.68     LegendNANA
01:00 6.5 6.3 98 0.0 30 2   101.70     LegendNANA
02:00 5.7 5.5 98 0.0 0 1   101.70     LegendNANA
03:00 5.0 4.8 98 0.0 29 3   101.72     LegendNANA
04:00 5.5 5.4 99 0.0 0 1   101.71     LegendNANA
05:00 6.1 5.9 99 0.0   0   101.72     LegendNANA
06:00 7.8 7.6 99 0.0 34 6   101.68     LegendNANA
07:00 8.2 8.1 99 0.0 35 4   101.68     LegendNANA
08:00 8.7 8.6 99 0.2 34 4   101.68     LegendNANA
09:00 9.4 9.1 99 0.0 36 6   101.66     LegendNANA
10:00 10.0 9.4 96 0.0 2 6   101.65     LegendNANA
11:00 10.3 9.0 92 0.0 3 5   101.61     LegendNANA
12:00 11.7 8.9 83 0.0 2 5   101.54     LegendNANA
13:00 13.2 9.3 77 0.0 1 5   101.44     LegendNANA
14:00 14.0 9.6 75 0.0 1 7   101.34     LegendNANA
15:00 13.5 9.4 76 0.0 2 5   101.26     LegendNANA
16:00 12.6 9.3 80 0.0 3 4   101.20     LegendNANA
17:00 11.4 9.1 86 0.0 35 2   101.16     LegendNANA
18:00 8.7 7.7 94 0.0 25 2   101.14     LegendNANA
19:00 7.9 7.3 96 0.0 26 2   101.12     LegendNANA
20:00 7.0 6.5 96 0.0 25 2   101.11     LegendNANA
21:00 7.6 7.2 98 0.0 0 1   101.10     LegendNANA
22:00 7.1 6.8 98 0.0 29 3   101.08     LegendNANA
23:00 7.4 7.2 98 0.0 29 4   101.06     LegendNANA

Notes on Data Quality.

Legend

  • E = Estimated
  • M = Missing
  • NA = Not Available*
  • [empty] = Indicates an unobserved value
Date modified: